Location: Banff
(51.1670°N, 115.5670°W)
Time: 23:12:06
(UTC-07:00)

Amateur Radio Satellites - All Passes

Search period start: 21 February 2017 22:42
Search period end: 22 February 2017 22:42
Location: Banff, 51.1670°N, 115.5670°W

Satellite Date Start Highest point End Downlink Frequencies (MHz)
Time Altitude Azimuth
SPROUT 21 Feb 22:44:08 22:46:59 18° 59° (ENE) 22:49:51 437.525
PRISM 21 Feb 22:48:16 22:52:19 63° 288° (WNW) 22:56:20 437.425
RS-15 21 Feb 22:51:11 23:02:50 44° 353° (N) 23:14:31 29.354- 29.394
PCSat 21 Feb 22:56:47 23:00:03 16° 9° (N) 23:03:18 145.827
ESTCUBE 1 21 Feb 22:57:26 23:01:56 69° 72° (ENE) 23:06:26 437.505/2401.250
AIST 2D 21 Feb 22:57:41 22:58:36 11° 87° (E) 22:59:31 435.315
SO-50 21 Feb 22:58:49 23:01:37 16° 112° (ESE) 23:04:25 436.795
DELFI C3 21 Feb 23:01:08 23:02:25 11° 273° (W) 23:03:42 145.870
UNISAT 6 21 Feb 23:20:20 23:25:04 74° 287° (WNW) 23:29:44 437.425
TIGRISAT 21 Feb 23:21:53 23:26:37 76° 286° (WNW) 23:31:19 435.000
DUCHIFAT 1 21 Feb 23:28:18 23:30:40 14° 88° (E) 23:33:01 145.980
EO-79 21 Feb 23:33:49 23:36:55 19° 91° (E) 23:39:59 145.935-145.965
FO-29 21 Feb 23:35:57 23:43:51 73° 103° (ESE) 23:51:10 435.910
VELOX 1 21 Feb 23:40:16 23:44:37 67° 71° (ENE) 23:48:59 145.980
DX 1 21 Feb 23:45:23 23:49:23 38° 66° (ENE) 23:53:25 434.975-435.025
POLYITAN 1 21 Feb 23:49:40 23:53:21 27° 94° (E) 23:57:00 437.675
O/OREOS (USA 219) 21 Feb 23:52:13 23:56:20 37° 108° (ESE) 00:00:30 437.305
QB50P2 21 Feb 23:52:23 23:56:11 30° 95° (E) 23:59:57 145.880/145.840
NANOSAT C BR1 21 Feb 23:53:00 23:56:38 26° 94° (E) 00:00:15 145.865
YUBILEINY 22 Feb 00:03:21 00:10:48 33° 279° (W) 00:18:12 435.215
50 SAT 22 Feb 00:04:38 00:08:09 84° 77° (ENE) 00:11:40 437.505
UKube-1 22 Feb 00:05:24 00:09:28 44° 68° (ENE) 00:13:35 .
SPROUT 22 Feb 00:18:13 00:22:27 67° 258° (WSW) 00:26:45 437.525
AIST 2D 22 Feb 00:28:44 00:32:19 73° 285° (WNW) 00:35:52 435.315
ESTCUBE 1 22 Feb 00:36:17 00:39:13 17° 271° (W) 00:42:10 437.505/2401.250
SO-50 22 Feb 00:36:48 00:41:29 88° 131° (SE) 00:46:07 436.795
PCSat 22 Feb 00:40:25 00:45:13 30° 34° (NE) 00:50:00 145.827
BUGSAT 1 22 Feb 00:40:35 00:44:14 27° 95° (E) 00:47:52 437.445
UNISAT 6 22 Feb 00:58:43 01:00:58 13° 307° (NW) 01:03:14 437.425
TIGRISAT 22 Feb 01:00:11 01:02:32 14° 306° (NW) 01:04:54 435.000
DUCHIFAT 1 22 Feb 01:02:35 01:06:51 74° 288° (WNW) 01:11:07 145.980
RS-15 22 Feb 01:06:25 01:18:33 53° 26° (NNE) 01:30:22 29.354- 29.394
EO-79 22 Feb 01:08:49 01:13:01 55° 290° (WNW) 01:17:12 145.935-145.965
VELOX 1 22 Feb 01:18:44 01:21:32 16° 271° (W) 01:24:21 145.980
MOZHAYETS 4 22 Feb 01:19:30 01:20:20 10° 50° (NE) 01:21:11
FO-29 22 Feb 01:21:26 01:28:16 34° 304° (NW) 01:34:46 435.910
DX 1 22 Feb 01:21:57 01:25:40 28° 265° (W) 01:29:26 434.975-435.025
POLYITAN 1 22 Feb 01:25:14 01:29:16 39° 293° (WNW) 01:33:16 437.675
QB50P2 22 Feb 01:28:06 01:32:02 35° 294° (WNW) 01:35:56 145.880/145.840
NANOSAT C BR1 22 Feb 01:28:29 01:32:29 39° 293° (WNW) 01:36:28 145.865
O/OREOS (USA 219) 22 Feb 01:31:42 01:35:48 34° 309° (NW) 01:39:56 437.305
UKube-1 22 Feb 01:42:11 01:45:42 24° 266° (W) 01:49:14 .
Oscar 19 22 Feb 01:44:35 01:49:20 36° 96° (E) 01:54:02 437.125/150
ITUPSAT 1 22 Feb 01:48:05 01:52:34 40° 66° (ENE) 01:57:05 437.325
BEESAT 22 Feb 01:57:10 02:01:46 48° 68° (ENE) 02:06:24 436.000
Gurwin Techsat 1B 22 Feb 01:58:35 02:03:13 29° 94° (E) 02:07:49 435.225
BUGSAT 1 22 Feb 02:15:46 02:19:40 37° 293° (WNW) 02:23:35 437.445
KKS-1 22 Feb 02:18:07 02:19:15 11° 51° (NE) 02:20:24 437.445
SO-50 22 Feb 02:18:37 02:22:30 26° 332° (NNW) 02:26:22 436.795
PCSat 22 Feb 02:23:42 02:29:09 75° 237° (WSW) 02:34:33 145.827
DUCHIFAT 1 22 Feb 02:40:14 02:41:48 12° 306° (NW) 02:43:21 145.980
MOZHAYETS 4 22 Feb 02:52:00 02:56:32 56° 70° (ENE) 03:01:07
AO-7 22 Feb 02:53:26 02:59:11 20° 86° (E) 03:04:53 .
STARS 22 Feb 03:01:49 03:03:54 13° 54° (NE) 03:05:59 437.465
FO-29 22 Feb 03:08:42 03:11:01 12° 327° (NNW) 03:13:20 435.910
M-CUBED/EXP-1 PRIME 22 Feb 03:11:19 03:12:33 12° 52° (NE) 03:13:46 437.505
RS-15 22 Feb 03:19:46 03:32:09 79° 235° (SW) 03:44:04 29.354- 29.394
Oscar 19 22 Feb 03:23:57 03:28:42 39° 296° (WNW) 03:33:24 437.125/150
ITUPSAT 1 22 Feb 03:26:13 03:30:30 31° 265° (W) 03:34:49 437.325
BEESAT 22 Feb 03:35:48 03:39:47 26° 267° (W) 03:43:49 436.000
Gurwin Techsat 1B 22 Feb 03:38:15 03:43:24 50° 293° (WNW) 03:48:32 435.225
CUBESAT XI-V 22 Feb 03:41:35 03:45:46 33° 65° (ENE) 03:49:57 437.345
ITAMSAT 1 22 Feb 03:48:54 03:54:02 50° 100° (E) 03:59:06 435.822/435.867
KKS-1 22 Feb 03:50:35 03:54:58 63° 70° (ENE) 03:59:22 437.445
SO-50 22 Feb 04:01:43 04:04:27 15° 357° (N) 04:07:11 436.795
PCSat 22 Feb 04:08:50 04:11:39 14° 256° (WSW) 04:14:27 145.827
MOZHAYETS 4 22 Feb 04:30:30 04:34:03 21° 269° (W) 04:37:38
STARS 22 Feb 04:35:10 04:39:32 81° 75° (ENE) 04:43:58 437.465
M-CUBED/EXP-1 PRIME 22 Feb 04:43:19 04:46:36 73° 249° (WSW) 04:49:53 437.505
AO-85 22 Feb 04:43:24 04:44:23 11° 110° (ESE) 04:45:21 145.980
AO-7 22 Feb 04:44:58 04:53:22 78° 108° (ESE) 05:01:40 .
CUBESAT XI-V 22 Feb 05:18:48 05:23:06 36° 264° (W) 05:27:26 437.345
Gurwin Techsat 1B 22 Feb 05:20:42 05:22:12 11° 314° (NW) 05:23:43 435.225
ITAMSAT 1 22 Feb 05:28:46 05:33:18 30° 300° (WNW) 05:37:48 435.822/435.867
KKS-1 22 Feb 05:28:55 05:31:57 18° 270° (W) 05:34:59 437.445
RS-15 22 Feb 05:33:24 05:42:42 27° 260° (W) 05:51:46 29.354- 29.394
SO-50 22 Feb 05:43:03 05:46:32 21° 21° (NNE) 05:49:59 436.795
STRAND 1 22 Feb 05:51:53 05:56:08 27° 59° (ENE) 06:00:23 437.568
XW-2F 22 Feb 06:07:14 06:10:02 19° 91° (E) 06:12:49 145.980 - 146.000
KAITUO 1B 22 Feb 06:08:51 06:11:24 17° 90° (E) 06:13:55 145.475/437.950
XW-2D 22 Feb 06:09:27 06:12:27 21° 92° (E) 06:15:24 145.860 - 145.880
CUTE-I 22 Feb 06:09:59 06:14:19 24° 91° (E) 06:18:36 437.470
STARS 22 Feb 06:14:15 06:16:30 14° 272° (W) 06:18:44 437.465
XW-2B 22 Feb 06:14:19 06:17:26 23° 93° (E) 06:20:31 145.730 - 145.750
AO-85 22 Feb 06:19:40 06:24:06 68° 128° (SE) 06:28:15 145.980
XW-2C 22 Feb 06:22:38 06:26:00 28° 95° (E) 06:29:19 145.795 - 145.815
LilacSat-2 22 Feb 06:35:21 06:39:01 39° 97° (E) 06:42:38 437.200
AO-7 22 Feb 06:38:18 06:45:32 35° 311° (NW) 06:52:44 .
NUDT-PHONESAT 22 Feb 06:47:32 06:51:09 41° 98° (E) 06:54:44 437.300
DOVE 4 22 Feb 06:55:58 07:00:29 68° 102° (ESE) 07:05:17 437.250
HO-68 22 Feb 07:17:44 07:23:27 25° 90° (E) 07:29:06 435.675
CUTE 1.7 + AOD 2 22 Feb 07:22:31 07:25:24 18° 89° (E) 07:28:16 437.475
SO-50 22 Feb 07:23:18 07:27:49 64° 44° (NE) 07:32:16 436.795
XW-2A 22 Feb 07:24:45 07:27:32 22° 94° (E) 07:30:20 145.665 - 145.685
STRAND 1 22 Feb 07:29:57 07:35:00 57° 259° (W) 07:40:07 437.568
XW-2F 22 Feb 07:40:44 07:44:25 44° 290° (WNW) 07:48:03 145.980 - 146.000
KAITUO 1B 22 Feb 07:42:01 07:45:43 49° 289° (WNW) 07:49:22 145.475/437.950
XW-2D 22 Feb 07:43:11 07:46:49 40° 291° (WNW) 07:50:25 145.860 - 145.880
XW-2B 22 Feb 07:48:11 07:51:46 37° 292° (WNW) 07:55:18 145.730 - 145.750
UWE-3 22 Feb 07:49:05 07:50:50 12° 84° (E) 07:52:36 435.000/436.395/437.385
CUTE-I 22 Feb 07:49:28 07:54:47 62° 291° (WNW) 08:00:05 437.470
XW-2C 22 Feb 07:56:47 08:00:12 30° 294° (WNW) 08:03:36 145.795 - 145.815
BEESAT 3 22 Feb 08:01:09 08:04:56 47° 124° (ESE) 08:08:46 437.485
AO-85 22 Feb 08:01:12 08:04:51 26° 328° (NNW) 08:08:20 145.980
PRISM 22 Feb 08:07:58 08:11:13 23° 62° (ENE) 08:14:27 437.425
LilacSat-2 22 Feb 08:10:02 08:13:07 23° 296° (WNW) 08:16:11 437.200
FO-29 22 Feb 08:10:53 08:15:40 19° 43° (NE) 08:20:37 435.910
O/OREOS (USA 219) 22 Feb 08:17:37 08:21:39 30° 49° (NE) 08:25:41 437.305
ZACube-1 22 Feb 08:17:51 08:20:11 14° 86° (E) 08:22:30 437.345
NUDT-PHONESAT 22 Feb 08:21:59 08:24:52 21° 297° (WNW) 08:27:43 437.300
SEEDS 22 Feb 08:25:55 08:30:00 48° 99° (E) 08:34:02 437.485
AAUSAT CUBESAT 2 22 Feb 08:26:12 08:29:42 26° 94° (E) 08:33:10 437.432
BEESAT 2 22 Feb 08:31:31 08:35:16 42° 123° (ESE) 08:39:05 435.950
AO-7 22 Feb 08:32:14 08:35:53 14° 336° (NNW) 08:39:33 .
DOVE 4 22 Feb 08:34:35 08:37:49 20° 300° (WNW) 08:41:10 437.250
CUBEBUG 2 22 Feb 08:38:23 08:43:00 48° 98° (E) 08:47:37 437.445
UNISAT 6 22 Feb 08:48:10 08:51:56 27° 62° (ENE) 08:55:48 437.425
TIGRISAT 22 Feb 08:49:38 08:53:22 26° 62° (ENE) 08:57:10 435.000
XW-2A 22 Feb 08:57:16 09:00:23 31° 292° (WNW) 09:03:28 145.665 - 145.685
CUTE 1.7 + AOD 2 22 Feb 08:57:27 09:01:38 58° 288° (WNW) 09:05:46 437.475
SO-50 22 Feb 09:04:22 09:07:55 23° 244° (WSW) 09:11:26 436.795
HO-68 22 Feb 09:04:47 09:11:58 81° 291° (WNW) 09:19:07 435.675
AO-73 22 Feb 09:07:10 09:11:21 34° 95° (E) 09:15:29 145.935
Oscar 11 22 Feb 09:18:28 09:22:31 37° 97° (E) 09:26:32 .
YUBILEINY 22 Feb 09:21:24 09:26:19 17° 70° (ENE) 09:31:14 435.215
UWE-3 22 Feb 09:23:20 09:28:04 81° 102° (ESE) 09:32:44 435.000/436.395/437.385
CUTE-I 22 Feb 09:31:15 09:33:51 14° 311° (NW) 09:36:28 437.470
AIST 2D 22 Feb 09:37:58 09:38:38 10° 57° (ENE) 09:39:17 435.315
BEESAT 3 22 Feb 09:39:09 09:42:43 31° 325° (NW) 09:46:18 437.485
PRISM 22 Feb 09:42:23 09:46:17 43° 261° (W) 09:50:12 437.425
AO-85 22 Feb 09:44:42 09:46:33 13° 352° (N) 09:48:24 145.980
FO-29 22 Feb 09:52:07 09:59:08 59° 66° (ENE) 10:06:45 435.910
ZACube-1 22 Feb 09:52:29 09:57:07 86° 289° (WNW) 10:01:41 437.345
O/OREOS (USA 219) 22 Feb 09:56:52 10:01:14 45° 250° (WSW) 10:05:36 437.305
AAUSAT CUBESAT 2 22 Feb 10:01:28 10:05:16 36° 293° (WNW) 10:09:02 437.432
SEEDS 22 Feb 10:02:11 10:05:25 22° 298° (WNW) 10:08:38 437.485
ISS 22 Feb 10:08:16 10:10:55 22° 145° (SE) 10:13:34 437.550
BEESAT 2 22 Feb 10:09:29 10:13:08 33° 323° (NW) 10:16:51 435.950
CUBEBUG 2 22 Feb 10:15:24 10:19:24 27° 297° (WNW) 10:23:24 437.445
UNISAT 6 22 Feb 10:24:06 10:28:26 46° 262° (W) 10:32:53 437.425
DUCHIFAT 1 22 Feb 10:24:38 10:27:50 21° 61° (ENE) 10:31:03 145.980
TIGRISAT 22 Feb 10:25:28 10:29:48 47° 261° (W) 10:34:17 435.000
DELFI C3 22 Feb 10:29:45 10:33:42 67° 103° (ESE) 10:37:35 145.870
EO-79 22 Feb 10:30:51 10:34:26 27° 64° (ENE) 10:38:03 145.935-145.965
Tancredo 1 22 Feb 10:41:36 10:44:38 36° 152° (SSE) 10:47:40 437.200
AO-73 22 Feb 10:43:26 10:47:34 34° 295° (WNW) 10:51:40 145.935
POLYITAN 1 22 Feb 10:46:50 10:50:46 38° 67° (ENE) 10:54:45 437.675
QB50P2 22 Feb 10:49:34 10:53:34 42° 68° (ENE) 10:57:37 145.880/145.840
NANOSAT C BR1 22 Feb 10:49:41 10:53:34 37° 67° (ENE) 10:57:30 145.865
HO-68 22 Feb 10:53:24 10:58:45 23° 313° (NW) 11:04:06 435.675
Oscar 11 22 Feb 10:54:48 10:58:34 29° 296° (WNW) 11:02:18 .
UWE-3 22 Feb 11:00:52 11:03:56 18° 303° (WNW) 11:07:01 435.000/436.395/437.385
AIST 2D 22 Feb 11:07:41 11:11:15 89° 84° (E) 11:14:51 435.315
YUBILEINY 22 Feb 11:12:40 11:21:22 66° 93° (E) 11:30:03 435.215
BEESAT 3 22 Feb 11:19:32 11:21:30 13° 348° (NNW) 11:23:28 437.485
AO-85 22 Feb 11:26:13 11:28:36 15° 17° (NNE) 11:30:56 145.980
Oscar 19 22 Feb 11:29:38 11:32:56 17° 54° (NE) 11:36:14 437.125/150
ZACube-1 22 Feb 11:30:09 11:32:43 15° 305° (NW) 11:35:16 437.345
BUGSAT 1 22 Feb 11:34:58 11:38:43 36° 67° (ENE) 11:42:31 437.445
FO-29 22 Feb 11:37:53 11:44:28 39° 268° (W) 11:51:38 435.910
ISS 22 Feb 11:43:44 11:47:02 74° 164° (SSE) 11:50:20 437.550
Gurwin Techsat 1B 22 Feb 11:47:44 11:50:48 16° 51° (NE) 11:53:53 435.225
BEESAT 2 22 Feb 11:49:56 11:52:04 14° 346° (NNW) 11:54:12 435.950
DUCHIFAT 1 22 Feb 11:59:06 12:03:13 51° 260° (W) 12:07:21 145.980
SPROUT 22 Feb 11:59:50 12:02:23 15° 89° (E) 12:04:54 437.525
DELFI C3 22 Feb 12:05:41 12:08:03 15° 301° (WNW) 12:10:23 145.870
EO-79 22 Feb 12:06:08 12:10:05 38° 262° (W) 12:14:05 145.935-145.965
AO-7 22 Feb 12:09:34 12:14:29 17° 31° (NNE) 12:19:22 .
Tancredo 1 22 Feb 12:17:31 12:20:46 87° 351° (N) 12:24:02 437.200
ESTCUBE 1 22 Feb 12:21:18 12:25:48 74° 103° (ESE) 12:30:17 437.505/2401.250
POLYITAN 1 22 Feb 12:23:03 12:26:40 27° 266° (W) 12:30:20 437.675
NANOSAT C BR1 22 Feb 12:25:46 12:29:23 27° 266° (W) 12:33:01 145.865
QB50P2 22 Feb 12:26:05 12:29:32 24° 267° (W) 12:33:02 145.880/145.840
50 SAT 22 Feb 12:57:38 13:00:58 42° 99° (E) 13:04:17 437.505
BEESAT 3 22 Feb 12:58:48 13:00:44 13° 12° (NNE) 13:02:40 437.485
VELOX 1 22 Feb 13:01:16 13:05:41 66° 102° (ESE) 13:10:04 145.980
DX 1 22 Feb 13:04:08 13:08:07 34° 97° (E) 13:12:05 434.975-435.025
AO-85 22 Feb 13:06:10 13:09:58 44° 41° (NE) 13:13:44 145.980
Oscar 19 22 Feb 13:06:24 13:11:34 87° 74° (ENE) 13:16:45 437.125/150
BUGSAT 1 22 Feb 13:10:45 13:14:11 26° 266° (W) 13:17:39 437.445
YUBILEINY 22 Feb 13:10:49 13:18:49 37° 297° (WNW) 13:26:49 435.215
ISS 22 Feb 13:20:13 13:23:32 81° 5° (N) 13:26:51 437.550
UKube-1 22 Feb 13:22:57 13:27:01 38° 98° (E) 13:31:01 .
Gurwin Techsat 1B 22 Feb 13:24:37 13:29:54 74° 71° (ENE) 13:35:15 435.225
BEESAT 2 22 Feb 13:29:33 13:31:29 13° 11° (N) 13:33:25 435.950
ITAMSAT 1 22 Feb 13:34:09 13:38:15 24° 57° (ENE) 13:42:22 435.822/435.867
SPROUT 22 Feb 13:34:28 13:38:47 71° 287° (WNW) 13:43:04 437.525
Tancredo 1 22 Feb 13:53:52 13:57:08 87° 192° (SSW) 14:00:22 437.200
AO-7 22 Feb 13:57:29 14:05:19 47° 56° (NE) 14:13:10 .
ESTCUBE 1 22 Feb 13:59:07 14:02:07 18° 303° (WNW) 14:05:06 437.505/2401.250
50 SAT 22 Feb 14:31:26 14:33:51 18° 298° (WNW) 14:36:14 437.505
BEESAT 3 22 Feb 14:35:57 14:39:32 30° 35° (NE) 14:43:07 437.485
VELOX 1 22 Feb 14:38:37 14:41:43 19° 302° (WNW) 14:44:49 145.980
DX 1 22 Feb 14:40:24 14:44:17 32° 296° (WNW) 14:48:09 434.975-435.025
AO-85 22 Feb 14:46:51 14:50:13 27° 241° (WSW) 14:53:33 145.980
Oscar 19 22 Feb 14:48:30 14:51:36 16° 273° (W) 14:54:42 437.125/150
ISS 22 Feb 14:56:44 14:59:56 48° 204° (SSW) 15:03:08 437.550
UKube-1 22 Feb 14:59:13 15:02:56 29° 297° (WNW) 15:06:39 .
Gurwin Techsat 1B 22 Feb 15:06:38 15:10:26 20° 271° (W) 15:14:16 435.225
BEESAT 2 22 Feb 15:06:57 15:10:30 28° 34° (NNE) 15:14:03 435.950
ITAMSAT 1 22 Feb 15:12:07 15:17:18 66° 258° (WSW) 15:22:32 435.822/435.867
SPROUT 22 Feb 15:12:29 15:13:56 12° 306° (NW) 15:15:24 437.525
YUBILEINY 22 Feb 15:16:54 15:19:06 11° 326° (NW) 15:21:18 435.215
ITUPSAT 1 22 Feb 15:20:40 15:25:19 45° 99° (E) 15:29:55 437.325
BEESAT 22 Feb 15:29:26 15:34:10 55° 101° (E) 15:38:52 436.000
Tancredo 1 22 Feb 15:30:19 15:33:12 30° 211° (SSW) 15:36:03 437.200
AO-7 22 Feb 15:49:51 15:58:01 55° 258° (WSW) 16:06:13 .
CUTE-I 22 Feb 16:00:19 16:02:51 14° 49° (NE) 16:05:23 437.470
HO-68 22 Feb 16:10:47 16:12:30 11° 31° (NNE) 16:14:12 435.675
BEESAT 3 22 Feb 16:13:26 16:17:22 51° 235° (SW) 16:21:15 437.485
MOZHAYETS 4 22 Feb 16:18:41 16:23:19 65° 102° (ESE) 16:27:52
STARS 22 Feb 16:22:11 16:22:45 10° 85° (E) 16:23:19 437.465
DOVE 4 22 Feb 16:31:12 16:33:46 16° 58° (ENE) 16:36:23 437.250
ISS 22 Feb 16:34:22 16:35:48 12° 222° (SW) 16:37:15 437.550
BEESAT 2 22 Feb 16:44:33 16:48:33 57° 234° (SW) 16:52:31 435.950
XW-2F 22 Feb 16:53:09 16:56:03 21° 63° (ENE) 16:58:58 145.980 - 146.000
KAITUO 1B 22 Feb 16:53:58 16:56:39 18° 62° (ENE) 16:59:20 145.475/437.950
XW-2D 22 Feb 16:55:39 16:58:42 23° 64° (ENE) 17:01:47 145.860 - 145.880
ITAMSAT 1 22 Feb 16:56:34 16:57:47 11° 277° (W) 16:59:01 435.822/435.867
ITUPSAT 1 22 Feb 16:58:51 17:02:59 29° 298° (WNW) 17:07:05 437.325
XW-2B 22 Feb 17:00:29 17:03:39 24° 64° (ENE) 17:06:49 145.730 - 145.750
BEESAT 22 Feb 17:07:47 17:11:39 25° 300° (WNW) 17:15:29 436.000
XW-2C 22 Feb 17:08:44 17:12:06 29° 66° (ENE) 17:15:30 145.795 - 145.815
CUBESAT XI-V 22 Feb 17:09:37 17:13:57 38° 97° (E) 17:18:14 437.345
PCSat 22 Feb 17:10:35 17:15:26 34° 114° (ESE) 17:20:18 145.827
KKS-1 22 Feb 17:12:35 17:17:02 61° 102° (ESE) 17:21:28 437.445
LilacSat-2 22 Feb 17:21:51 17:25:31 41° 69° (ENE) 17:29:11 437.200
NUDT-PHONESAT 22 Feb 17:31:40 17:35:13 41° 70° (ENE) 17:38:49 437.300
CUTE-I 22 Feb 17:36:39 17:41:54 62° 69° (ENE) 17:47:12 437.470
RS-15 22 Feb 17:49:01 17:59:50 42° 109° (ESE) 18:10:57 29.354- 29.394
AO-7 22 Feb 17:49:40 17:52:48 12° 280° (W) 17:55:58 .
M-CUBED/EXP-1 PRIME 22 Feb 17:50:29 17:53:44 30° 104° (ESE) 17:57:10 437.505
SEEDS 22 Feb 17:50:47 17:51:23 10° 53° (NE) 17:51:58 437.485
HO-68 22 Feb 17:51:54 17:58:11 34° 55° (NE) 18:04:28 435.675
STARS 22 Feb 17:55:25 17:59:53 76° 104° (ESE) 18:04:19 437.465
MOZHAYETS 4 22 Feb 17:56:40 18:00:02 20° 301° (WNW) 18:03:24
XW-2A 22 Feb 18:01:28 18:03:54 19° 63° (ENE) 18:06:23 145.665 - 145.685
DOVE 4 22 Feb 18:06:54 18:11:01 69° 258° (WSW) 18:15:12 437.250
CUBEBUG 2 22 Feb 18:08:02 18:09:47 12° 52° (NE) 18:11:33 437.445
CUTE 1.7 + AOD 2 22 Feb 18:19:46 18:23:16 25° 63° (ENE) 18:26:46 437.475
XW-2F 22 Feb 18:26:16 18:29:57 44° 261° (W) 18:33:41 145.980 - 146.000
KAITUO 1B 22 Feb 18:26:38 18:30:21 50° 260° (W) 18:34:07 145.475/437.950
XW-2D 22 Feb 18:29:06 18:32:43 39° 262° (W) 18:36:23 145.860 - 145.880
XW-2B 22 Feb 18:34:08 18:37:43 36° 263° (W) 18:41:19 145.730 - 145.750
XW-2C 22 Feb 18:42:53 18:46:17 29° 265° (W) 18:49:43 145.795 - 145.815
CUBESAT XI-V 22 Feb 18:47:12 18:51:14 31° 296° (WNW) 18:55:15 437.345
KKS-1 22 Feb 18:49:55 18:53:14 21° 301° (WNW) 18:56:31 437.445
UWE-3 22 Feb 18:50:21 18:53:27 19° 58° (ENE) 18:56:36 435.000/436.395/437.385
PCSat 22 Feb 18:53:21 18:58:40 53° 314° (NW) 19:04:00 145.827
LilacSat-2 22 Feb 18:56:57 18:59:58 21° 268° (W) 19:03:00 437.200
NUDT-PHONESAT 22 Feb 19:06:30 19:09:20 20° 268° (W) 19:12:13 437.300
ZACube-1 22 Feb 19:18:04 19:21:24 21° 60° (ENE) 19:24:47 437.345
CUTE-I 22 Feb 19:18:07 19:22:22 24° 269° (W) 19:26:40 437.470
AAUSAT CUBESAT 2 22 Feb 19:20:55 19:24:42 34° 67° (ENE) 19:28:28 437.432
YUBILEINY 22 Feb 19:21:04 19:24:52 13° 39° (NE) 19:28:39 435.215
SEEDS 22 Feb 19:22:04 19:26:15 64° 73° (ENE) 19:30:28 437.485
M-CUBED/EXP-1 PRIME 22 Feb 19:25:04 19:28:11 29° 299° (WNW) 19:31:30 437.505
STARS 22 Feb 19:32:51 19:35:43 17° 303° (WNW) 19:38:35 437.465
XW-2A 22 Feb 19:33:16 19:36:27 38° 262° (W) 19:39:42 145.665 - 145.685
STRAND 1 22 Feb 19:35:12 19:39:53 34° 95° (E) 19:44:33 437.568
HO-68 22 Feb 19:38:22 19:45:31 67° 256° (WSW) 19:52:41 435.675
CUBEBUG 2 22 Feb 19:41:07 19:45:31 69° 73° (ENE) 19:50:07 437.445
DELFI C3 22 Feb 19:48:35 19:49:38 11° 55° (NE) 19:50:41 145.870
CUTE 1.7 + AOD 2 22 Feb 19:54:49 19:58:55 43° 262° (W) 20:03:02 437.475
RS-15 22 Feb 19:59:22 20:11:32 79° 315° (NW) 20:24:03 29.354- 29.394
AO-73 22 Feb 20:07:07 20:11:24 48° 69° (ENE) 20:15:47 145.935
Oscar 11 22 Feb 20:17:46 20:22:01 53° 71° (ENE) 20:26:17 .
UWE-3 22 Feb 20:24:56 20:29:23 71° 258° (WSW) 20:34:00 435.000/436.395/437.385
PCSat 22 Feb 20:39:21 20:43:17 20° 338° (NNW) 20:47:15 145.827
ZACube-1 22 Feb 20:52:52 20:57:16 61° 259° (W) 21:01:49 437.345
AAUSAT CUBESAT 2 22 Feb 20:56:34 21:00:13 29° 266° (W) 21:03:51 437.432
SEEDS 22 Feb 20:59:43 21:02:22 16° 271° (W) 21:05:04 437.485
STRAND 1 22 Feb 21:14:19 21:19:10 42° 295° (WNW) 21:23:59 437.568
YUBILEINY 22 Feb 21:16:22 21:24:41 44° 67° (ENE) 21:32:54 435.215
PRISM 22 Feb 21:19:07 21:21:51 17° 91° (E) 21:24:33 437.425
DELFI C3 22 Feb 21:19:47 21:23:45 77° 75° (ENE) 21:27:43 145.870
CUBEBUG 2 22 Feb 21:19:49 21:22:41 17° 273° (W) 21:25:38 437.445
HO-68 22 Feb 21:30:54 21:34:39 15° 277° (W) 21:38:25 435.675
AO-73 22 Feb 21:44:17 21:47:53 24° 269° (W) 21:51:33 145.935
ESTCUBE 1 22 Feb 21:50:31 21:53:42 19° 58° (ENE) 21:56:53 437.505/2401.250
Oscar 11 22 Feb 21:55:14 21:58:28 20° 269° (W) 22:01:44 .
UNISAT 6 22 Feb 22:10:30 22:14:34 28° 93° (E) 22:18:36 437.425
TIGRISAT 22 Feb 22:11:45 22:15:46 27° 93° (E) 22:19:45 435.000
RS-15 22 Feb 22:14:25 22:26:07 46° 346° (NNW) 22:37:54 29.354- 29.394
PCSat 22 Feb 22:25:42 22:28:49 15° 5° (N) 22:31:56 145.827
VELOX 1 22 Feb 22:28:54 22:31:42 17° 57° (ENE) 22:34:30 145.980
O/OREOS (USA 219) 22 Feb 22:38:58 22:39:43 10° 96° (E) 22:40:29 437.305
